Location: Pcim
(49.7500°N, 19.9670°E)
Time: 21:20:18
(UTC+02:00)

MOZHAYETS 4 - Pass Details

Date: 03 May 2024
Orbit: 652 x 670 km, 98.3° (Epoch: 20 May)

Event Time Altitude Azimuth Distance (km) Brightness Sun altitude
Rises 03:45:08 0° 163° (SSE) 3,006 10.8 -12.5°
Reaches altitude 10° 03:47:21 10° 163° (SSE) 2,096 10.0 -12.2°
Maximum altitude 03:51:56 88° 81° (E) 678 7.7 -11.7°
Drops below altitude 10° 03:56:33 10° 346° (NNW) 2,107 10.7 -11.1°
Sets 03:58:47 0° 346° (NNW) 3,022 11.5 -10.9°
